Regional Weather Roundup
Issued by NWS

Home | Current Version | Previous Version | Graphics & Text | Print | Product List | Glossary On
Versions: 1 2 3 4 5 6 7 8 9 10 11 12 13 14 15 16 17 18 19 20 21 22 23 24 25 26 27 28 29 30 31 32 33 34 35 36 37 38 39 40 41 42 43 44 45 46 47 48 49 50
369
ASUS43 KLMK 260002
RWRKY
KENTUCKY REGIONAL WEATHER ROUNDUP
NATIONAL WEATHER SERVICE LOUISVILLE KY
800 PM EDT TUE JUL 25 2017

NOTE "FAIR" INDICATES FEW OR NO CLOUDS BELOW 12,000 FEET
WITH NO SIGNIFICANT WEATHER AND/OR OBSTRUCTIONS TO VISIBILITY.

KYZ001>023-026-027-061>063-070>075-260100-
WESTERN AND SOUTH CENTRAL KENTUCKY

CITY           SKY/WX    TMP DP  RH WIND       PRES   REMARKS
PADUCAH        MOSUNNY   83  76  79 CALM      30.05S HX  91
HENDERSON      PTSUNNY   84  71  65 E6        30.09R
OWENSBORO      SUNNY     85  71  63 E10       30.09R HX  90
HOPKINSVILLE   CLOUDY    83  73  72 N6        30.07R
BOWLING GREEN  SUNNY     87  71  58 NE9       30.08S HX  93
GLASGOW        NOT AVBL
$$

KYZ024-025-028>034-038-045-046-053-260100-
NORTH CENTRAL KENTUCKY

CITY           SKY/WX    TMP DP  RH WIND       PRES   REMARKS
LOUISVILLE/SDF PTCLDY    85  63  47 E10       30.11R
LOUISVILLE/LOU PTCLDY    84  66  54 NE7       30.12R
FORT KNOX      CLEAR     82  66  59 E7        30.10R
$$

KYZ035>037-039>044-047>052-055>060-089>105-260100-
NORTHEAST KENTUCKY

CITY           SKY/WX    TMP DP  RH WIND       PRES   REMARKS
LEXINGTON      CLEAR     80  61  52 NE9       30.15R
COVINGTON      PTCLDY    78  61  55 E10       30.16R
FRANKFORT      PTCLDY    81  62  52 E7        30.12S
$$

KYZ054-064>069-076>088-106>120-260100-
SOUTHEAST KENTUCKY

CITY           SKY/WX    TMP DP  RH WIND       PRES   REMARKS
JACKSON        CLEAR     77  66  68 CALM      30.16R
LONDON         CLEAR     82  65  56 NE6       30.14R
SOMERSET       CLEAR     81  63  54 NE7       30.13S
MIDDLESBORO    CLEAR     83  68  58 CALM      30.13R
MONTICELLO     CLEAR     80  70  71 N13       30.13F
$$





USA.gov is the U.S. government's official web portal to all federal, state and local government web resources and services.